Location: Bussy-Saint-Georges
(48.8410°N, 2.7017°E)
Time: 16:13:56
(UTC+00:00)

Cosmos 1000 Rocket - Pass Details

Date: 18 October 2021
Orbit: 954 x 991 km, 82.9° (Epoch: 29 November)

Event Time Altitude Azimuth Distance (km) Brightness Sun altitude
Rises 17:55:37 0° 351° (N) 3,647 7.6 -10.9°
Reaches altitude 10° 17:58:07 10° 353° (N) 2,699 6.9 -11.3°
Maximum altitude 18:04:18 77° 79° (E) 990 4.4 -12.4°
Drops below altitude 10° 18:10:29 10° 167° (SSE) 2,700 6.7 -13.4°
Sets 18:13:00 0° 168° (SSE) 3,648 7.4 -13.8°
